Powrót do katalogu

NOAA 16 DEB

AktywnySSO
NORAD 42426·DEBRIS·🇺🇸 United States

Wystrzelony Sep 21, 2000 z Vandenberg Space Force Base

Loading…

Następne Przeloty (najbliższe 24 godziny)

TLE

Starzejące sięSource: Space-Track

Epoka: Sep 10, 2026, 07:04 UTC

1 42426U 00055TW  26253.29483834  .00002116  00000-0  90270-3 0  9998
2 42426  98.5768 274.5664 0011025 252.0414 107.9564 14.26086650520393

Śledź NOAA 16 DEB w czasie rzeczywistym z AllMySat

Download on the App Store